This is the latest recevied weather packets stored in our database for station/object CE3UOB-10. If no packets are shown the sender has not sent any weather packets the latest 10 day(s).
| Time | Temp. | Humidity | Pressure | Rain* | Wind** | Luminosity | Snow |
|---|---|---|---|---|---|---|---|
| 1777673106 | 14.44° C | 77% | 998.7 hPa | - | - | - | - |
| 1777673070 | 14.44° C | 77% | 998.7 hPa | - | - | - | - |
| 1777673058 | 14.44° C | 77% | 998.7 hPa | - | - | - | - |
| 1777671267 | 16.67° C | 69% | 998.6 hPa | - | - | - | - |
| 1777671257 | 16.67° C | 69% | 998.6 hPa | - | - | - | - |
| 1777669468 | 18.33° C | 63% | 998.8 hPa | - | - | - | - |
| 1777669461 | 18.33° C | 63% | 998.8 hPa | - | - | - | - |
| 1777667668 | 18.33° C | 63% | 999.1 hPa | - | - | - | - |
| 1777667661 | 18.33° C | 63% | 999.1 hPa | - | - | - | - |
| 1777665867 | 18.33° C | 65% | 999 hPa | - | - | - | - |
| 1777665861 | 18.33° C | 65% | 999 hPa | - | - | - | - |
| 1777664068 | 17.78° C | 66% | 999.3 hPa | - | - | - | - |
| 1777664061 | 17.78° C | 66% | 999.3 hPa | - | - | - | - |
| 1777662268 | 16.67° C | 75% | 999.4 hPa | - | - | - | - |
| 1777662260 | 16.67° C | 75% | 999.4 hPa | - | - | - | - |
| 1777660467 | 17.22° C | 74% | 999 hPa | - | - | - | - |
| 1777660460 | 17.22° C | 74% | 999 hPa | - | - | - | - |
| 1777658666 | 16.67° C | 73% | 999.2 hPa | - | - | - | - |
| 1777658660 | 16.67° C | 73% | 999.2 hPa | - | - | - | - |
| 1777656866 | 15.56° C | 69% | 999.4 hPa | - | - | - | - |
| 1777656859 | 15.56° C | 69% | 999.4 hPa | - | - | - | - |
| 1777655066 | 14.44° C | 75% | 999.3 hPa | - | - | - | - |
| 1777655059 | 14.44° C | 75% | 999.3 hPa | - | - | - | - |
| 1777653266 | 13.33° C | 79% | 999.9 hPa | - | - | - | - |
| 1777653259 | 13.33° C | 79% | 999.9 hPa | - | - | - | - |
* Rain since midnight (hover to see other rain measurements)
** Current wind speed in m/s (hover to see current wind gust speed)